Location: Sternwarte_Laufen
(47.9344°N, 12.9346°E)
Time: 00:40:38
(UTC+02:00)

ISS - Pass Details

Date: 23 May 2017
Orbit: 402 x 408 km, 51.6° (Epoch: 27 May)

Event Time Altitude Azimuth Distance (km) Brightness Sun altitude
Rises 22:43:22 0° 224° (SW) 2,323 -0.1 -14.3°
Reaches altitude 10° 22:45:31 10° 216° (SW) 1,465 -1.2 -14.5°
Maximum altitude 22:48:36 38° 146° (SSE) 633 -3.4 -14.8°
Drops below altitude 10° 22:51:42 10° 76° (ENE) 1,470 -1.2 -15.1°
Sets 22:53:51 0° 69° (ENE) 2,332 -0.1 -15.3°
